Погода в Эль-Мансуре

Египет     31°02′19″N   31°22′34″E
темп.,
°C
ветер,
м/с
пор.,
м/с
влажн.,
%
обл.,
%
осадки,
мм/ч
давл.,
гПа
погр.,
м
8 мая, сб
сб823:00+20всв22620 0.0 101523
02:00+19в22650 0.0 101421
05:00+19вюв35663 0.0 101373
08:00+28вюв56270 0.0 1014463
11:00+38вюв4491 0.0 10131097
14:00+42в4264 0.0 10102141
17:00+38всв77122 0.0 1009426
20:00+27всв511321 0.0 1010205
9 мая, вс
вс923:00+24в493812 0.0 1010145
02:00+26вюв4432100 0.0 100952
05:00+28ююз41020100 0.0 1008134
08:00+33зсз5816100 0.0 1010490
11:00+37сз5620100 0.0 10101117
14:00+38сз5617100 0.0 10081419
17:00+32сз672736 0.0 1009591
20:00+24сз3561100 0.0 1011174
10 мая, пн
пн1023:00+21сз4879100 0.0 1011225
02:00+21ссз3785100 0.0 1010234
05:00+19ссз37895 0.0 1010183
08:00+26ссв34496 0.0 1011638
11:00+34ссз33230 0.0 10091372
14:00+37ссз65180 0.0 10072408
17:00+30ссз78310 0.0 1008904
20:00+22ссз36670 0.0 1011228
11 мая, вт
вт1123:00+19сз35890 0.0 1010115
02:00+18сз36960 0.0 1009170
05:00+18сз24960 0.0 1010105
08:00+25ссв34460 0.0 1011819
11:00+31св54250 0.0 10101577
14:00+33всв53210 0.0 10091901
17:00+30ссв75280 0.0 10081043
20:00+21с37684 0.0 1010201
12 мая, ср
ср1223:00+18ссз22860 0.0 101141
02:00+17сз23955 0.0 101158
05:00+17ссз22940 0.0 101020
08:00+23сз33560 0.0 1011653
11:00+32сз22270 0.0 10101471
14:00+35ссв65210 0.0 10082393
17:00+28с76350 0.0 10091065
20:00+20с36730 0.0 1011177